Location: La Comballaz
(46.3780°N, 7.0817°E)
Time: 17:50:27
(UTC+00:00)

Envisat - Pass Details

Date: 13 December 2021
Orbit: 764 x 766 km, 98.2° (Epoch: 16 January)

Event Time Altitude Azimuth Distance (km) Brightness Sun altitude
Rises 03:17:21 0° 28° (NNE) 3,242 6.6 -38.5°
Reaches altitude 10° 03:20:28 10° 48° (NE) 2,310 6.0 -37.9°
Maximum altitude 03:23:47 17° 90° (E) 1,846 5.6 -37.3°
Drops below altitude 10° 03:27:06 10° 131° (SE) 2,297 5.9 -36.8°
Sets 03:30:10 0° 150° (SSE) 3,217 6.5 -36.3°
